Location: Del Amo
(33.8464°N, 118.2104°W)
Time: 01:16:21
(UTC+00:00)

SR - Pass Details

Date: 24 September 2024
Orbit: 578 x 855 km, 66.7° (Epoch: 06 October)

Event Time Altitude Azimuth Distance (km) Brightness Sun altitude
Rises 18:44:49 0° 221° (SW) 2,817 ? 52.5°
Reaches altitude 10° 18:47:10 10° 229° (SW) 1,900 ? 52.7°
Maximum altitude 18:51:09 41° 300° (WNW) 850 ? 53.1°
Drops below altitude 10° 18:55:10 10° 11° (N) 1,897 ? 53.4°
Sets 18:57:31 0° 19° (NNE) 2,813 ? 53.5°
